DNO456 LGAV-LGSM

Flight info

Callsign DNO456
Flight time 0h 33m
Altitude 17000
Route KEA L995 RIPLI R32 IKARO G18 URNIL
Aircraft B738/M-SDE2E3FGHIRWXY/LB1

Departure

Time 2026-05-04 11:41
Airport Athens Eleftherios Venizelos International Airport (LGAV)

Arrival

Time 2026-05-04 12:14
Airport Samos Airport (LGSM)
Time Latitude Longitude Altitude Speed Heading
2026-05-04 11:10 37.93117 23.94418 300 ft 0 kts 217°
2026-05-04 11:33 37.93131 23.94431 323 ft 2 kts 217°
2026-05-04 11:33 37.93144 23.94444 327 ft 2 kts 217°
2026-05-04 11:33 37.93157 23.94456 301 ft 2 kts 207°
2026-05-04 11:34 37.93173 23.94462 302 ft 2 kts 166°
2026-05-04 11:34 37.93183 23.94457 301 ft 1 kts 135°
2026-05-04 11:34 37.93186 23.94453 301 ft 0 kts 132°
2026-05-04 11:35 37.93187 23.94453 301 ft 0 kts 132°
2026-05-04 11:36 37.93184 23.94457 301 ft 2 kts 130°
2026-05-04 11:37 37.93163 23.94490 300 ft 7 kts 128°
2026-05-04 11:37 37.93123 23.94556 302 ft 12 kts 127°
2026-05-04 11:37 37.93081 23.94630 301 ft 9 kts 123°
2026-05-04 11:37 37.93020 23.94673 301 ft 12 kts 193°
2026-05-04 11:38 37.92937 23.94606 300 ft 16 kts 217°
2026-05-04 11:38 37.92839 23.94513 302 ft 19 kts 217°
2026-05-04 11:38 37.92727 23.94407 302 ft 20 kts 217°
2026-05-04 11:38 37.92616 23.94302 304 ft 20 kts 214°
2026-05-04 11:39 37.92543 23.94310 305 ft 5 kts 127°
2026-05-04 11:39 37.92522 23.94347 305 ft 5 kts 126°
2026-05-04 11:40 37.95048 23.96870 876 ft 182 kts 38°
2026-05-04 11:41 37.96104 23.97879 1402 ft 195 kts 36°
2026-05-04 11:41 37.97190 23.98926 2027 ft 192 kts 33°
2026-05-04 11:41 37.98219 23.99908 2936 ft 180 kts 33°
2026-05-04 11:41 37.99184 24.00832 3833 ft 172 kts 33°
2026-05-04 11:42 38.00206 24.01811 4145 ft 198 kts 36°
2026-05-04 11:42 38.00993 24.03379 4295 ft 230 kts 75°
2026-05-04 11:42 38.00932 24.05486 4484 ft 249 kts 98°
2026-05-04 11:42 38.00602 24.07704 4699 ft 265 kts 98°
2026-05-04 11:43 38.00256 24.10074 5060 ft 278 kts 98°
2026-05-04 11:43 37.99913 24.12498 5753 ft 279 kts 98°
2026-05-04 11:43 37.99583 24.14909 6449 ft 282 kts 98°
2026-05-04 11:43 37.99254 24.17385 7106 ft 286 kts 97°
2026-05-04 11:44 37.98932 24.19879 7827 ft 287 kts 96°
2026-05-04 11:44 37.98614 24.22384 8582 ft 288 kts 96°
2026-05-04 11:44 37.98299 24.24904 9353 ft 291 kts 95°
2026-05-04 11:44 37.97984 24.27452 10167 ft 294 kts 95°
2026-05-04 11:45 37.97664 24.30078 10494 ft 313 kts 95°
2026-05-04 11:45 37.97323 24.32900 10666 ft 334 kts 95°
2026-05-04 11:45 37.96961 24.35883 11020 ft 348 kts 95°
2026-05-04 11:45 37.96587 24.38934 11669 ft 352 kts 95°
2026-05-04 11:46 37.96210 24.42006 12435 ft 354 kts 95°
2026-05-04 11:46 37.95828 24.45106 13132 ft 357 kts 95°
2026-05-04 11:46 37.95445 24.48229 13841 ft 361 kts 95°
2026-05-04 11:46 37.95060 24.51349 14546 ft 364 kts 96°
2026-05-04 11:47 37.94668 24.54533 15253 ft 367 kts 96°
2026-05-04 11:47 37.94273 24.57738 15964 ft 369 kts 96°
2026-05-04 11:47 37.93877 24.60947 16715 ft 369 kts 96°
2026-05-04 11:47 37.93477 24.64170 17080 ft 369 kts 97°
2026-05-04 11:48 37.93078 24.67385 17130 ft 369 kts 97°
2026-05-04 11:48 37.92679 24.70585 17145 ft 366 kts 96°
2026-05-04 11:48 37.92282 24.73765 17135 ft 365 kts 96°
2026-05-04 11:48 37.91884 24.76945 17149 ft 366 kts 96°
2026-05-04 11:49 37.91486 24.80128 17143 ft 366 kts 96°
2026-05-04 11:49 37.91086 24.83317 17137 ft 367 kts 96°
2026-05-04 11:49 37.90690 24.86465 17152 ft 367 kts 96°
2026-05-04 11:49 37.90289 24.89662 17129 ft 368 kts 96°
2026-05-04 11:50 37.89885 24.92864 17142 ft 368 kts 96°
2026-05-04 11:50 37.89478 24.96071 17126 ft 369 kts 96°
2026-05-04 11:50 37.89070 24.99273 17124 ft 368 kts 96°
2026-05-04 11:50 37.88663 25.02469 17119 ft 367 kts 96°
2026-05-04 11:51 37.88256 25.05660 17122 ft 366 kts 96°
2026-05-04 11:51 37.87848 25.08851 17125 ft 366 kts 96°
2026-05-04 11:51 37.87441 25.12028 17125 ft 365 kts 96°
2026-05-04 11:51 37.87034 25.15200 17125 ft 365 kts 96°
2026-05-04 11:52 37.86627 25.18370 17125 ft 365 kts 96°
2026-05-04 11:52 37.86217 25.21545 17120 ft 366 kts 96°
2026-05-04 11:52 37.85812 25.24683 17120 ft 366 kts 96°
2026-05-04 11:52 37.85376 25.27859 17117 ft 368 kts 99°
2026-05-04 11:53 37.84746 25.31005 17120 ft 369 kts 103°
2026-05-04 11:53 37.84256 25.33113 17124 ft 370 kts 104°
2026-05-04 11:53 37.83250 25.37237 17118 ft 371 kts 104°
2026-05-04 11:53 37.82484 25.40359 17111 ft 371 kts 104°
2026-05-04 11:55 37.77537 25.61196 17094 ft 363 kts 103°
2026-05-04 11:55 37.76827 25.64204 17089 ft 352 kts 103°
2026-05-04 11:56 37.76138 25.67117 17082 ft 341 kts 103°
2026-05-04 11:56 37.75461 25.69987 17096 ft 341 kts 103°
2026-05-04 11:56 37.74784 25.72867 17108 ft 342 kts 103°
2026-05-04 11:56 37.74105 25.75744 17099 ft 337 kts 103°
2026-05-04 11:57 37.73443 25.78535 17075 ft 323 kts 103°
2026-05-04 11:57 37.72816 25.81167 17035 ft 304 kts 102°
2026-05-04 11:57 37.72213 25.83700 16602 ft 300 kts 102°
2026-05-04 11:57 37.71617 25.86220 16145 ft 298 kts 102°
2026-05-04 11:58 37.71024 25.88726 15683 ft 296 kts 102°
2026-05-04 11:58 37.70441 25.91185 15251 ft 294 kts 102°
2026-05-04 11:58 37.69854 25.93655 14816 ft 293 kts 102°
2026-05-04 11:58 37.69269 25.96109 14380 ft 291 kts 102°
2026-05-04 11:59 37.68687 25.98551 13948 ft 289 kts 102°
2026-05-04 11:59 37.68107 26.00983 13478 ft 288 kts 101°
2026-05-04 11:59 37.67531 26.03391 13185 ft 285 kts 102°
2026-05-04 11:59 37.66955 26.05803 12873 ft 290 kts 102°
2026-05-04 12:00 37.66367 26.08269 12573 ft 298 kts 102°
2026-05-04 12:00 37.65755 26.10844 12266 ft 315 kts 102°
2026-05-04 12:00 37.65116 26.13517 11909 ft 319 kts 102°
2026-05-04 12:00 37.64472 26.16187 11552 ft 317 kts 103°
2026-05-04 12:01 37.63832 26.18838 11203 ft 315 kts 103°
2026-05-04 12:01 37.63194 26.21478 10868 ft 314 kts 102°
2026-05-04 12:02 37.59520 26.36651 9465 ft 291 kts 102°
2026-05-04 12:03 37.58932 26.39078 9177 ft 288 kts 102°
2026-05-04 12:03 37.58347 26.41490 8898 ft 287 kts 102°
2026-05-04 12:03 37.57763 26.43900 8588 ft 288 kts 103°
2026-05-04 12:03 37.57178 26.46314 8299 ft 287 kts 103°
2026-05-04 12:04 37.56591 26.48720 7996 ft 287 kts 102°
2026-05-04 12:04 37.56005 26.51121 7709 ft 287 kts 103°
2026-05-04 12:04 37.55417 26.53530 7372 ft 288 kts 103°
2026-05-04 12:04 37.54827 26.55941 7073 ft 287 kts 103°
2026-05-04 12:05 37.54241 26.58338 6771 ft 286 kts 103°
2026-05-04 12:05 37.53656 26.60728 6472 ft 284 kts 103°
2026-05-04 12:05 37.53082 26.63072 6154 ft 276 kts 103°
2026-05-04 12:05 37.52523 26.65347 5862 ft 268 kts 103°
2026-05-04 12:06 37.51976 26.67571 5590 ft 261 kts 103°
2026-05-04 12:06 37.51446 26.69725 5325 ft 254 kts 103°
2026-05-04 12:06 37.51123 26.71815 5065 ft 237 kts 80°
2026-05-04 12:06 37.51378 26.73768 4869 ft 219 kts 73°
2026-05-04 12:07 37.51641 26.75617 4622 ft 209 kts 73°
2026-05-04 12:07 37.51888 26.77404 4420 ft 206 kts 73°
2026-05-04 12:07 37.52132 26.79173 4235 ft 203 kts 73°
2026-05-04 12:07 37.52372 26.80916 4008 ft 200 kts 73°
2026-05-04 12:08 37.52606 26.82627 3803 ft 197 kts 73°
2026-05-04 12:08 37.52839 26.84325 3619 ft 197 kts 73°
2026-05-04 12:08 37.53074 26.86034 3422 ft 199 kts 73°
2026-05-04 12:08 37.53311 26.87756 3210 ft 200 kts 73°
2026-05-04 12:09 37.53855 26.89284 2999 ft 183 kts 37°
2026-05-04 12:09 37.54906 26.89883 2965 ft 161 kts 356°
2026-05-04 12:09 37.55982 26.89654 2960 ft 158 kts 346°
2026-05-04 12:09 37.57068 26.89390 2848 ft 161 kts 347°
2026-05-04 12:10 37.58164 26.89113 2646 ft 159 kts 343°
2026-05-04 12:10 37.59215 26.88718 2454 ft 154 kts 341°
2026-05-04 12:10 37.60192 26.88318 2266 ft 143 kts 341°
2026-05-04 12:10 37.61114 26.87913 2076 ft 139 kts 340°
2026-05-04 12:11 37.61988 26.87524 1929 ft 125 kts 340°
2026-05-04 12:11 37.62780 26.87179 1744 ft 116 kts 340°
2026-05-04 12:11 37.63616 26.86842 1654 ft 146 kts 341°
2026-05-04 12:11 37.64565 26.86499 1652 ft 135 kts 342°
2026-05-04 12:12 37.65449 26.86203 1394 ft 129 kts 346°
2026-05-04 12:12 37.66284 26.86070 1276 ft 118 kts 356°
2026-05-04 12:12 37.67109 26.86250 1100 ft 123 kts
2026-05-04 12:12 37.67904 26.86662 946 ft 129 kts 23°
2026-05-04 12:13 37.68596 26.87409 853 ft 135 kts 45°
2026-05-04 12:14 37.68850 26.92341 30 ft 8 kts 13°
2026-05-04 12:15 37.68868 26.92309 31 ft 5 kts 257°
2026-05-04 12:15 37.68859 26.92264 31 ft 6 kts 258°
2026-05-04 12:15 37.68858 26.92199 32 ft 10 kts 272°
2026-05-04 12:15 37.68863 26.92100 32 ft 10 kts 274°
2026-05-04 12:16 37.68870 26.91987 31 ft 15 kts 275°
2026-05-04 12:16 37.68879 26.91837 29 ft 15 kts 274°
2026-05-04 12:16 37.68912 26.91706 30 ft 17 kts 326°
2026-05-04 12:16 37.68984 26.91626 28 ft 14 kts 282°
2026-05-04 12:17 37.68998 26.91536 29 ft 10 kts 282°
2026-05-04 12:17 37.68997 26.91433 30 ft 13 kts 260°
2026-05-04 12:17 37.68999 26.91344 30 ft 7 kts 302°
2026-05-04 12:17 37.69041 26.91333 29 ft 5 kts
2026-05-04 12:18 37.69062 26.91335 29 ft 0 kts